{"data":{"norad_id":67321,"intl_designator":"2026-002S","name":"STARLINK-36462","alt_names":[],"object_type":"PAYLOAD","status":"ACTIVE","operator":null,"country":"US","launch_date":"2026-01-04","launch_site_code":"AFETR","launch_vehicle":null,"mission":null,"orbit_class":"UNKNOWN","rcs_meters":null,"size_class":null,"mass_kg":null,"dimensions":null,"purposes":["comms"],"wikipedia_slug":null,"has_3d_model":false,"image_url":null,"decayed_at":null,"tle_current":{"epoch":"2026-05-24T17:14:51.485280Z","epoch_age_seconds":113412,"freshness":"FRESH","line1":"1 67321U 26002S   26144.71865145  .00014331  00000+0  52911-3 0  9995","line2":"2 67321  43.0005 256.1509 0001736 272.8494  87.2159 15.27589974 22704","mean_motion":15.27589974,"eccentricity":0.0001736,"inclination_deg":43.0005,"raan_deg":256.1509,"arg_perigee_deg":272.8494,"mean_anomaly_deg":87.2159,"bstar":0.00052911,"rev_number":2270,"period_min":94.266133223522,"perigee_km":481.82813373642,"apogee_km":484.21032717963,"semimajor_km":6861.156230458,"source":"CELESTRAK","updated_at":"2026-05-25T13:38:21.518151Z"}}}